Lid_Strength_Index
6 8 10 8 8 8 9 10 11 9 8 10 10 9 8 7 7 7 6 6 5 5 4 3 3 3 3 2 1 1 1 1 0 1 1 1 1 1 1 2 1 0 1 1
8 10 8 7 8 9 10 11 11 9 8 10 10 10 8 7 7 6 6 6 5 5 4 4 3 3 4 4 3 1 1 1 1 1 1 1 2 1 1 2 4 3 2 1
10 9 8 9 9 10 10 11 11 11 9 9 10 11 9 7 7 6 6 5 5 5 5 4 4 4 4 4 4 3 2 2 2 2 2 2 2 2 3 3 4 6 6 3
9 8 9 9 10 10 12 9 10 10 11 13 10 15 10 9 8 7 6 6 5 5 4 4 4 4 4 4 4 4 3 3 3 2 3 3 4 5 5 4 4 7 6 7
10 10 10 10 10 9 10 9 10 10 11 12 12 13 11 9 10 8 6 5 5 5 5 5 5 5 5 4 4 4 4 4 3 3 3 3 4 4 3 3 4 6 8 8
9 8 8 9 9 8 9 9 10 10 11 15 12 12 13 10 9 8 6 7 6 6 5 6 7 7 6 6 6 5 5 5 4 4 3 4 4 4 4 4 5 7 8 10
10 10 9 8 10 9 9 11 14 15 16 15 11 12 12 9 8 7 7 5 6 6 5 5 6 7 7 7 7 6 6 6 5 4 4 4 4 4 4 4 5 7 10 12
12 13 10 9 9 10 10 10 13 19 16 14 13 15 12 8 7 6 6 5 5 6 6 6 6 7 7 7 7 6 6 6 6 5 5 5 4 4 4 4 4 6 7 9
11 12 8 9 8 8 11 12 9 12 14 15 13 11 9 7 7 7 6 6 6 6 5 6 7 7 7 7 7 6 6 6 6 6 5 5 5 5 4 4 4 4 5 7
9 12 10 10 8 8 9 8 13 12 19 19 14 13 12 9 8 7 7 6 6 5 6 7 7 7 7 7 7 6 6 6 6 6 6 6 5 5 5 5 5 6 7 9
9 10 12 10 11 11 11 12 11 10 12 17 18 13 8 8 7 7 6 6 6 5 7 7 7 8 8 7 7 7 6 6 6 6 6 6 6 5 5 6 7 8 9 11
9 11 14 12 9 9 9 11 11 14 15 13 14 14 8 8 8 8 7 7 6 6 7 7 7 8 8 8 8 7 7 7 6 6 7 7 6 7 7 8 8 10 12 13
10 14 18 16 12 11 12 11 11 10 12 15 17 15 9 8 8 8 8 7 8 7 7 8 8 8 7 7 7 7 7 7 7 7 7 7 8 8 8 9 10 12 13 15
9 15 15 18 16 12 13 12 11 12 15 15 14 13 9 8 8 7 7 7 7 7 7 7 7 7 7 7 7 7 8 7 7 8 8 8 8 8 9 9 11 13 14 15
11 15 14 13 13 14 14 14 13 13 13 15 13 12 10 8 7 7 6 7 7 7 7 7 7 7 7 7 8 8 8 8 7 8 8 8 8 9 9 11 13 13 15 15
11 15 14 15 13 13 15 14 13 13 13 13 12 12 9 8 7 7 7 6 7 6 6 7 7 7 7 7 8 8 8 9 9 8 9 9 9 11 12 13 14 15 15 16
12 13 14 16 12 13 16 14 13 12 11 11 14 10 8 8 8 7 7 6 6 6 6 6 6 6 7 7 8 8 9 9 10 10 11 11 11 12 12 13 14 15 15 16
13 13 14 16 14 20 13 9 10 11 10 9 9 9 8 8 7 6 6 6 6 6 6 6 6 6 6 7 7 8 10 11 11 12 12 12 12 13 13 14 14 14 15 16
9 11 14 16 16 14 13 11 11 11 11 9 10 8 7 7 7 7 5 6 6 6 6 6 6 7 8 9 9 11 12 12 12 12 12 12 13 13 13 14 14 14 15 15
9 9 13 14 17 18 14 11 9 8 14 12 12 12 11 10 12 8 9 8 7 6 7 8 8 9 10 10 12 12 13 13 13 13 12 12 13 14 14 14 14 14 14 15
13 13 15 15 16 13 9 10 7 16 14 10 10 10 11 12 10 10 9 9 8 9 10 10 10 11 12 13 13 14 13 13 13 13 13 14 13 14 14 14 14 14 15 15
13 14 15 14 16 18 8 9 12 10 9 9 9 9 9 9 9 9 9 10 10 10 10 12 13 13 13 13 13 13 14 13 13 14 14 14 14 14 14 14 14 14 16 16
14 12 12 12 12 8 7 8 7 7 8 7 8 8 7 8 8 7 9 9 10 11 12 12 13 14 13 13 13 13 14 14 15 15 15 15 14 13 13 14 15 15 15 15
10 8 11 11 10 9 7 6 6 6 6 7 7 7 7 8 8 9 10 11 12 12 12 13 13 13 13 13 13 13 13 13 14 14 14 14 14 14 14 14 14 14 14 14
10 9 11 11 10 8 8 7 6 5 6 8 7 8 8 8 9 9 10 11 12 13 13 13 13 13 13 13 13 13 13 13 13 14 14 13 14 14 14 13 13 13 13 13
9 11 11 12 9 8 8 6 5 6 7 7 7 6 7 10 10 10 11 11 12 13 13 13 14 14 14 14 13 12 11 11 13 14 13 13 13 13 14 14 13 12 12 11